Location: ??????????
(54.7560°N, 39.1389°E)
Time: 03:38:18
(UTC+00:00)

ADEOS II - Pass Details

Date: 19 May 2025
Orbit: 793 x 796 km, 98.7° (Epoch: 15 June)

Event Time Altitude Azimuth Distance (km) Brightness Sun altitude
Rises 23:38:18 0° 19° (NNE) 3,311 7.1 -9.6°
Reaches altitude 10° 23:40:46 10° 26° (NNE) 2,376 6.2 -9.4°
Maximum altitude 23:45:46 43° 98° (E) 1,103 3.1 -9.0°
Drops below altitude 10° 23:50:43 10° 170° (S) 2,359 4.1 -8.6°
Enters shadow 23:52:33 - 176° (S) 3,052 4.6 -8.5°
